SQ2FRB-13 Weather Reports


Display with metric or nautical units.
time (UTC)temp
F
wind
direction
speed
MPH
gust
MPH
rain 1hr
in
rain 24hr
in
rain mn
in
humidity
%
barometer
mb
20180722110041 82 338 3.0 6.0 0.00 0.00 0.00 40 1012.8
20180722105541 82 356 3.0 7.0 0.00 0.00 0.00 39 1012.8
20180722105041 82 342 3.0 6.0 0.00 0.00 0.00 40 1012.8
20180722104541 82 52 3.0 6.0 0.00 0.00 0.00 40 1012.8
20180722104041 82 36 3.0 3.0 0.00 0.00 0.00 41 1012.8
20180722103541 81 68 4.0 7.0 0.00 0.00 0.00 42 1012.8
20180722103047 81 57 3.0 5.0 0.00 0.00 0.00 42 1012.8
20180722102541 81 32 3.0 5.0 0.00 0.00 0.00 43 1012.8
20180722102041 81 11 3.0 6.0 0.00 0.00 0.00 45 1012.8
20180722101541 81 40 3.0 5.0 0.00 0.00 0.00 47 1012.8
20180722101041 81 68 2.0 5.0 0.00 0.00 0.00 47 1012.8
20180722100541 81 48 2.0 5.0 0.00 0.00 0.00 47 1012.8
20180722100041 80 62 2.0 4.0 0.00 0.00 0.00 47 1012.8
20180722095541 81 21 2.0 6.0 0.00 0.00 0.00 48 1013.0
20180722095041 80 87 2.0 2.0 0.00 0.00 0.00 48 1013.0
20180722094541 81 58 2.0 3.0 0.00 0.00 0.00 48 1013.0
20180722094041 81 41 2.0 3.0 0.00 0.00 0.00 48 1013.0
20180722093541 81 40 1.0 4.0 0.00 0.00 0.00 50 1013.0
20180722093041 80 105 2.0 3.0 0.00 0.00 0.00 51 1013.0
20180722092541 79 277 2.0 3.0 0.00 0.00 0.00 51 1013.0
20180722092041 79 351 3.0 4.0 0.00 0.00 0.00 51 1013.0
20180722091541 79 40 2.0 4.0 0.00 0.00 0.00 52 1012.9
20180722091041 79 52 2.0 5.0 0.00 0.00 0.00 52 1012.9
20180722090541 78 85 2.0 3.0 0.00 0.00 0.00 53 1012.9
20180722090041 78 345 2.0 4.0 0.00 0.00 0.00 54 1012.9
20180722085541 78 16 2.0 4.0 0.00 0.00 0.00 56 1012.9
20180722085041 77 44 3.0 3.0 0.00 0.00 0.00 57 1012.9
20180722084541 77 85 3.0 4.0 0.00 0.00 0.00 58 1012.9
20180722084041 77 69 2.0 4.0 0.00 0.00 0.00 59 1012.9
20180722083541 77 37 2.0 3.0 0.00 0.00 0.00 61 1012.9
20180722083041 76 53 2.0 3.0 0.00 0.00 0.00 61 1013.0
20180722082541 76 45 2.0 3.0 0.00 0.00 0.00 63 1013.0
20180722082041 75 36 2.0 4.0 0.00 0.00 0.00 62 1013.0
20180722081541 75 45 2.0 4.0 0.00 0.00 0.00 62 1012.8
20180722081041 75 19 2.0 3.0 0.00 0.00 0.00 62 1012.8
20180722080541 75 76 2.0 4.0 0.00 0.00 0.00 62 1012.8
20180722080041 75 90 2.0 4.0 0.00 0.00 0.00 63 1012.8
20180722075541 75 31 2.0 5.0 0.00 0.00 0.00 63 1012.8
20180722075041 75 86 2.0 5.0 0.00 0.00 0.00 63 1012.8
20180722074541 75 123 2.0 5.0 0.00 0.00 0.00 63 1012.8
20180722074041 75 15 1.0 5.0 0.00 0.00 0.00 63 1012.8
20180722073541 75 43 2.0 2.0 0.00 0.00 0.00 63 1012.9
20180722073041 74 35 2.0 2.0 0.00 0.00 0.00 64 1012.9
20180722072541 74 56 2.0 3.0 0.00 0.00 0.00 65 1012.9
20180722072041 73 51 3.0 7.0 0.00 0.00 0.00 65 1012.9
20180722071541 73 92 2.0 7.0 0.00 0.00 0.00 65 1012.9
20180722071041 73 60 2.0 5.0 0.00 0.00 0.00 66 1013.0
20180722070541 73 77 3.0 3.0 0.00 0.00 0.00 66 1013.0
20180722070041 73 9 3.0 4.0 0.00 0.00 0.00 66 1013.0
20180722065541 72 141 4.0 5.0 0.00 0.00 0.00 67 1012.9
20180722065041 71 36 4.0 7.0 0.00 0.00 0.00 67 1012.9
20180722064541 71 44 3.0 7.0 0.00 0.00 0.00 68 1012.9
20180722064041 71 93 3.0 5.0 0.00 0.00 0.00 70 1012.9
20180722063541 70 50 3.0 4.0 0.00 0.00 0.00 72 1012.9
20180722063041 70 10 4.0 5.0 0.00 0.00 0.00 72 1013.0
20180722062541 69 339 4.0 6.0 0.00 0.00 0.00 73 1013.0
20180722062041 69 37 4.0 6.0 0.00 0.00 0.00 74 1013.0
20180722061541 69 3 4.0 5.0 0.00 0.00 0.00 74 1012.9
20180722061041 68 5 4.0 7.0 0.00 0.00 0.00 75 1012.9
20180722060541 68 47 4.0 8.0 0.00 0.00 0.00 76 1012.9
20180722060041 68 354 3.0 8.0 0.00 0.00 0.00 76 1012.9
20180722055541 68 16 3.0 7.0 0.00 0.00 0.00 76 1012.8
20180722055041 68 50 3.0 5.0 0.00 0.00 0.00 76 1012.8
20180722054541 68 93 3.0 5.0 0.00 0.00 0.00 76 1012.8
20180722054041 67 34 3.0 5.0 0.00 0.00 0.00 77 1012.8
20180722053541 67 1 3.0 4.0 0.00 0.00 0.00 78 1012.7
20180722053041 66 35 3.0 7.0 0.00 0.00 0.00 80 1012.6
20180722052541 66 28 3.0 7.0 0.00 0.00 0.00 80 1012.6
20180722052041 66 22 2.0 4.0 0.00 0.00 0.00 81 1012.6
20180722051541 65 42 2.0 3.0 0.00 0.00 0.00 81 1012.6
20180722051041 65 7 2.0 3.0 0.00 0.00 0.00 82 1012.6
20180722050541 65 22 3.0 4.0 0.00 0.00 0.00 82 1012.6
20180722050041 65 18 2.0 3.0 0.00 0.00 0.00 82 1012.6
20180722045541 65 7 2.0 4.0 0.00 0.00 0.00 82 1012.5
20180722045041 64 36 2.0 2.0 0.00 0.00 0.00 82 1012.4
20180722044541 64 35 2.0 2.0 0.00 0.00 0.00 83 1012.4
20180722044041 64 21 2.0 3.0 0.00 0.00 0.00 82 1012.4
20180722043541 64 57 2.0 3.0 0.00 0.00 0.00 83 1012.3
20180722043041 63 38 3.0 3.0 0.00 0.00 0.00 83 1012.3
20180722042541 63 2 3.0 6.0 0.00 0.00 0.00 83 1012.3
20180722042041 63 22 2.0 6.0 0.00 0.00 0.00 83 1012.3
20180722041541 62 3 2.0 4.0 0.00 0.00 0.00 83 1012.4
20180722041041 62 0 3.0 3.0 0.00 0.00 0.00 84 1012.4
20180722040541 62 0 2.0 3.0 0.00 0.00 0.00 84 1012.4
20180722040041 62 22 2.0 4.0 0.00 0.00 0.00 83 1012.4
20180722035541 62 22 2.0 3.0 0.00 0.00 0.00 83 1012.3
20180722035041 62 45 2.0 3.0 0.00 0.00 0.00 83 1012.3
20180722034541 62 36 2.0 3.0 0.00 0.00 0.00 83 1012.3
20180722034041 62 17 2.0 3.0 0.00 0.00 0.00 83 1012.3
20180722033541 62 26 1.0 3.0 0.00 0.00 0.00 83 1012.2
20180722033041 62 6 2.0 3.0 0.00 0.00 0.00 83 1012.2
20180722032541 62 3 2.0 3.0 0.00 0.00 0.00 83 1012.2
20180722032041 62 350 2.0 3.0 0.00 0.00 0.00 83 1012.2
20180722031541 62 342 1.0 2.0 0.00 0.00 0.00 83 1012.1
20180722031120 62 13 1.0 2.0 0.00 0.00 0.00 83 1012.1
20180722031041 62 13 1.0 2.0 0.00 0.00 0.00 83 1012.1
20180722030541 62 16 1.0 2.0 0.00 0.00 0.00 83 1012.1
20180722030041 62 22 2.0 2.0 0.00 0.00 0.00 82 1012.1
20180722025541 62 353 2.0 3.0 0.00 0.00 0.00 83 1012.1
20180722025041 62 6 1.0 3.0 0.00 0.00 0.00 82 1012.1
20180722024541 62 26 1.0 3.0 0.00 0.00 0.00 82 1012.1
20180722024041 62 22 2.0 3.0 0.00 0.00 0.00 82 1012.1
20180722023541 62 50 2.0 3.0 0.00 0.00 0.00 82 1012.2
20180722023041 62 336 1.0 3.0 0.00 0.00 0.00 82 1012.2
20180722022541 62 31 1.0 2.0 0.00 0.00 0.00 82 1012.2
20180722022041 62 9 1.0 3.0 0.00 0.00 0.00 82 1012.2
20180722021541 62 19 1.0 3.0 0.00 0.00 0.00 82 1012.3
20180722021041 62 5 2.0 2.0 0.00 0.00 0.00 82 1012.3
20180722020541 62 13 2.0 3.0 0.00 0.00 0.00 82 1012.3
20180722020041 62 30 2.0 3.0 0.00 0.00 0.00 82 1012.3
20180722015541 62 22 2.0 3.0 0.00 0.00 0.00 82 1012.3
20180722015041 62 37 2.0 3.0 0.00 0.00 0.00 81 1012.3
20180722014541 62 360 3.0 3.0 0.00 0.00 0.00 81 1012.3
20180722014041 62 1 3.0 4.0 0.00 0.00 0.00 81 1012.3
20180722013541 63 28 3.0 4.0 0.00 0.00 0.00 81 1012.5
20180722013041 63 31 3.0 3.0 0.00 0.00 0.00 81 1012.6
20180722012541 63 22 3.0 4.0 0.00 0.00 0.00 80 1012.6
20180722012041 63 22 2.0 4.0 0.00 0.00 0.00 80 1012.6
20180722011541 63 22 2.0 3.0 0.00 0.00 0.00 80 1012.6
20180722011041 63 22 2.0 2.0 0.00 0.00 0.00 80 1012.6
20180722010541 63 22 2.0 2.0 0.00 0.00 0.00 80 1012.6
20180722010041 63 53 2.0 2.0 0.00 0.00 0.00 80 1012.6
20180722005541 63 33 2.0 3.0 0.00 0.00 0.00 80 1012.6
20180722005041 63 21 3.0 4.0 0.00 0.00 0.00 80 1012.6
20180722004541 63 45 3.0 4.0 0.00 0.00 0.00 80 1012.6
20180722004041 63 339 3.0 5.0 0.00 0.00 0.00 79 1012.6
20180722003541 64 25 3.0 5.0 0.00 0.00 0.00 79 1012.6
20180722003041 64 5 3.0 5.0 0.00 0.00 0.00 79 1012.6
20180722002541 64 355 2.0 4.0 0.00 0.00 0.00 79 1012.6
20180722002041 64 10 2.0 2.0 0.00 0.00 0.00 78 1012.6
20180722001541 64 36 3.0 5.0 0.00 0.00 0.00 78 1012.6
20180722001041 64 13 3.0 4.0 0.00 0.00 0.00 78 1012.6
20180722000541 64 28 3.0 5.0 0.00 0.00 0.00 78 1012.6
20180722000041 64 19 3.0 4.0 0.00 0.00 0.00 77 1012.6
20180721235541 65 337 3.0 4.0 0.00 0.00 0.00 77 1013.0
20180721235041 65 40 3.0 4.0 0.00 0.00 0.00 77 1013.1
20180721234541 65 75 3.0 5.0 0.00 0.00 0.00 77 1013.1
20180721234041 65 346 4.0 6.0 0.00 0.00 0.00 76 1013.1
20180721233541 65 309 3.0 5.0 0.00 0.00 0.00 76 1012.6
20180721233041 65 22 3.0 6.0 0.00 0.00 0.00 75 1012.4
20180721232541 65 43 3.0 5.0 0.00 0.00 0.00 75 1012.4
20180721232041 66 49 3.0 6.0 0.00 0.00 0.00 75 1012.4
20180721231541 66 21 3.0 6.0 0.00 0.00 0.00 75 1012.5
20180721231041 66 51 3.0 4.0 0.00 0.00 0.00 74 1012.5
20180721230541 66 10 3.0 6.0 0.00 0.00 0.00 74 1012.5
20180721230041 66 36 3.0 4.0 0.00 0.00 0.00 73 1012.5
20180721225541 67 15 4.0 6.0 0.00 0.00 0.00 73 1012.5
20180721225041 67 4 4.0 5.0 0.00 0.00 0.00 72 1012.5
20180721224541 67 31 4.0 5.0 0.00 0.00 0.00 72 1012.5
20180721224041 67 32 4.0 4.0 0.00 0.00 0.00 72 1012.5
20180721223541 67 9 4.0 6.0 0.00 0.00 0.00 72 1012.6
20180721223041 68 357 3.0 4.0 0.00 0.00 0.00 71 1012.6
20180721222541 68 351 3.0 5.0 0.00 0.00 0.00 71 1012.6
20180721222041 68 348 3.0 4.0 0.00 0.00 0.00 70 1012.6
20180721221541 69 9 3.0 4.0 0.00 0.00 0.00 68 1012.4
20180721221041 69 22 4.0 4.0 0.00 0.00 0.00 67 1012.4
20180721220541 69 12 4.0 5.0 0.00 0.00 0.00 67 1012.4
20180721220041 69 17 4.0 6.0 0.00 0.00 0.00 67 1012.4
20180721215541 69 13 4.0 7.0 0.00 0.00 0.00 66 1012.3
20180721215041 70 332 5.0 5.0 0.00 0.00 0.00 66 1012.3
20180721214541 70 333 5.0 8.0 0.00 0.00 0.00 66 1012.3
20180721214041 70 333 4.0 7.0 0.00 0.00 0.00 66 1012.3
20180721213542 70 334 3.0 7.0 0.00 0.00 0.00 67 1012.1
20180721213042 70 10 3.0 5.0 0.00 0.00 0.00 67 1012.1
20180721212541 70 25 3.0 7.0 0.00 0.00 0.00 67 1012.1
20180721212041 70 348 3.0 4.0 0.00 0.00 0.00 67 1012.1
20180721211542 70 360 3.0 8.0 0.00 0.00 0.00 67 1012.1
20180721211042 70 2 3.0 8.0 0.00 0.00 0.00 67 1012.1
20180721210541 70 348 3.0 9.0 0.00 0.00 0.00 67 1012.1
20180721210041 70 0 3.0 9.0 0.00 0.00 0.00 67 1012.1
20180721205541 70 32 3.0 4.0 0.00 0.00 0.00 67 1012.0
20180721205041 70 343 3.0 5.0 0.00 0.00 0.00 67 1012.0
20180721204541 70 19 2.0 5.0 0.00 0.00 0.00 67 1012.0
20180721204041 70 9 2.0 3.0 0.00 0.00 0.00 67 1012.0
20180721203541 70 32 1.0 3.0 0.00 0.00 0.00 66 1012.0
20180721203041 71 22 1.0 3.0 0.00 0.00 0.00 65 1012.0
20180721202541 71 53 1.0 2.0 0.00 0.00 0.00 64 1012.0
20180721202041 71 333 2.0 2.0 0.00 0.00 0.00 62 1012.0
20180721201541 71 349 2.0 4.0 0.00 0.00 0.00 62 1012.0
20180721201042 71 306 2.0 4.0 0.00 0.00 0.00 62 1012.0
20180721200541 71 315 2.0 4.0 0.00 0.00 0.00 62 1012.0
20180721200041 71 315 1.0 3.0 0.00 0.00 0.00 66 1012.0
20180721195541 70 295 0.0 4.0 0.00 0.00 0.00 70 1011.9
20180721195041 70 0.0 0.0 0.00 0.00 0.00 72 1011.8
20180721194541 70 0.0 0.0 0.00 0.00 0.00 72 1011.8
20180721194041 70 0.0 0.0 0.00 0.00 0.00 72 1011.8
20180721193541 71 0.0 0.0 0.00 0.00 0.00 71 1011.7
20180721193041 71 0.0 0.0 0.00 0.00 0.00 70 1011.6
20180721192541 71 0.0 0.0 0.00 0.00 0.00 70 1011.6
20180721192041 72 0.0 0.0 0.00 0.00 0.00 68 1011.6
20180721191541 73 158 0.0 1.0 0.00 0.00 0.00 65 1011.6
20180721191041 73 0.0 0.0 0.00 0.00 0.00 63 1011.6
20180721190541 73 0.0 0.0 0.00 0.00 0.00 63 1011.6
20180721190041 73 180 0.0 0.0 0.00 0.00 0.00 64 1011.6
20180721185541 74 180 0.0 0.0 0.00 0.00 0.00 62 1011.6
20180721185041 75 180 1.0 1.0 0.00 0.00 0.00 61 1011.6
20180721184541 75 180 1.0 1.0 0.00 0.00 0.00 59 1011.6
20180721184041 76 218 0.0 2.0 0.00 0.00 0.00 57 1011.6
20180721183541 77 158 0.0 0.0 0.00 0.00 0.00 53 1011.7
20180721183041 78 172 1.0 1.0 0.00 0.00 0.00 45 1011.7
20180721182541 78 180 1.0 1.0 0.00 0.00 0.00 43 1011.7
20180721182041 79 180 0.0 2.0 0.00 0.00 0.00 45 1011.7
20180721181541 80 169 1.0 1.0 0.00 0.00 0.00 45 1011.5
20180721181041 80 248 1.0 2.0 0.00 0.00 0.00 43 1011.4
20180721180541 80 239 1.0 2.0 0.00 0.00 0.00 42 1011.4
20180721180041 80 182 1.0 2.0 0.00 0.00 0.00 41 1011.4
20180721175541 81 178 1.0 2.0 0.00 0.00 0.00 41 1011.4
20180721175041 81 226 2.0 4.0 0.00 0.00 0.00 38 1011.4
20180721174541 81 263 1.0 3.0 0.00 0.00 0.00 38 1011.4
20180721174041 81 240 2.0 4.0 0.00 0.00 0.00 39 1011.4
20180721173541 81 207 2.0 2.0 0.00 0.00 0.00 39 1011.5
20180721173041 81 211 2.0 2.0 0.00 0.00 0.00 38 1011.5
20180721172541 81 215 2.0 3.0 0.00 0.00 0.00 37 1011.5
20180721172041 80 222 2.0 3.0 0.00 0.00 0.00 36 1011.5
20180721171541 80 267 3.0 4.0 0.00 0.00 0.00 35 1011.5
20180721171041 80 261 4.0 4.0 0.00 0.00 0.00 35 1011.5
20180721170541 80 280 4.0 6.0 0.00 0.00 0.00 34 1011.5
20180721170041 81 298 3.0 5.0 0.00 0.00 0.00 34 1011.5
20180721165541 81 260 3.0 5.0 0.00 0.00 0.00 33 1011.5
20180721165041 82 345 3.0 4.0 0.00 0.00 0.00 33 1011.4
20180721164541 81 285 4.0 4.0 0.00 0.00 0.00 33 1011.4
20180721164041 81 271 4.0 5.0 0.00 0.00 0.00 33 1011.4
20180721163541 82 284 4.0 6.0 0.00 0.00 0.00 33 1011.6
20180721163041 82 296 3.0 6.0 0.00 0.00 0.00 33 1011.6
20180721162541 83 262 3.0 6.0 0.00 0.00 0.00 32 1011.6
20180721162041 83 302 3.0 5.0 0.00 0.00 0.00 31 1011.6
20180721161541 83 315 3.0 5.0 0.00 0.00 0.00 32 1011.5
20180721161041 83 265 2.0 5.0 0.00 0.00 0.00 31 1011.4
20180721160541 83 355 2.0 5.0 0.00 0.00 0.00 31 1011.4
20180721160041 83 328 3.0 5.0 0.00 0.00 0.00 31 1011.4
20180721155541 83 307 2.0 5.0 0.00 0.00 0.00 30 1011.6
20180721155041 83 356 3.0 4.0 0.00 0.00 0.00 29 1011.6
20180721154541 83 326 3.0 5.0 0.00 0.00 0.00 29 1011.6
20180721154041 83 39 3.0 5.0 0.00 0.00 0.00 30 1011.6
20180721153541 83 306 3.0 5.0 0.00 0.00 0.00 30 1011.7
20180721153041 82 191 4.0 4.0 0.00 0.00 0.00 30 1011.8
20180721152541 82 159 4.0 10.0 0.00 0.00 0.00 29 1011.8
20180721152041 82 291 4.0 4.0 0.00 0.00 0.00 30 1011.8
20180721151541 82 296 4.0 5.0 0.00 0.00 0.00 30 1011.8
20180721151041 82 296 5.0 6.0 0.00 0.00 0.00 30 1011.8
20180721150541 82 312 4.0 6.0 0.00 0.00 0.00 30 1011.8
20180721150041 82 281 5.0 6.0 0.00 0.00 0.00 29 1011.8
20180721145541 82 282 5.0 8.0 0.00 0.00 0.00 29 1011.8
20180721145041 82 260 3.0 7.0 0.00 0.00 0.00 31 1011.8
20180721144541 82 239 3.0 5.0 0.00 0.00 0.00 33 1011.8
20180721144041 82 219 4.0 5.0 0.00 0.00 0.00 33 1011.8
20180721143541 82 303 4.0 8.0 0.00 0.00 0.00 32 1011.8
20180721143041 82 320 4.0 8.0 0.00 0.00 0.00 32 1011.8
20180721142541 82 295 3.0 8.0 0.00 0.00 0.00 33 1011.8
20180721142041 82 225 3.0 4.0 0.00 0.00 0.00 35 1011.8
20180721141541 82 167 3.0 6.0 0.00 0.00 0.00 36 1011.9
20180721141041 82 216 3.0 6.0 0.00 0.00 0.00 37 1012.0
20180721140541 82 304 3.0 4.0 0.00 0.00 0.00 35 1012.0
20180721140041 82 298 4.0 8.0 0.00 0.00 0.00 35 1012.0
20180721135542 82 286 4.0 8.0 0.00 0.00 0.00 35 1012.2
20180721135042 82 306 4.0 6.0 0.00 0.00 0.00 35 1012.2
20180721134541 82 315 4.0 6.0 0.00 0.00 0.00 35 1012.2
20180721134041 82 216 3.0 5.0 0.00 0.00 0.00 35 1012.2
20180721133541 82 233 2.0 7.0 0.00 0.00 0.00 35 1012.5
20180721133041 82 167 3.0 3.0 0.00 0.00 0.00 38 1012.5
20180721132541 81 295 4.0 7.0 0.00 0.00 0.00 38 1012.5
20180721132041 82 283 3.0 7.0 0.00 0.00 0.00 38 1012.5
20180721131541 82 252 3.0 6.0 0.00 0.00 0.00 40 1012.4
20180721131041 81 189 4.0 6.0 0.00 0.00 0.00 40 1012.4
20180721130542 81 217 4.0 8.0 0.00 0.00 0.00 40 1012.4
20180721130042 82 224 3.0 6.0 0.00 0.00 0.00 40 1012.4
20180721125541 82 257 2.0 6.0 0.00 0.00 0.00 39 1012.5
20180721125041 81 250 4.0 5.0 0.00 0.00 0.00 39 1012.5
20180721124541 81 205 5.0 6.0 0.00 0.00 0.00 39 1012.5
20180721124041 81 265 3.0 11.0 0.00 0.00 0.00 39 1012.5
20180721123541 81 279 2.0 6.0 0.00 0.00 0.00 40 1012.5
20180721123041 81 218 3.0 8.0 0.00 0.00 0.00 41 1012.4
20180721122542 81 266 2.0 8.0 0.00 0.00 0.00 41 1012.4
20180721122042 81 180 2.0 3.0 0.00 0.00 0.00 41 1012.4
20180721121541 81 100 2.0 4.0 0.00 0.00 0.00 40 1012.4
20180721121041 81 315 3.0 3.0 0.00 0.00 0.00 40 1012.4
20180721120541 80 306 3.0 5.0 0.00 0.00 0.00 40 1012.4
20180721120041 80 260 3.0 8.0 0.00 0.00 0.00 41 1012.4
20180721115541 80 196 4.0 5.0 0.00 0.00 0.00 42 1012.4
20180721115041 80 295 4.0 5.0 0.00 0.00 0.00 41 1012.4
20180721114541 80 359 3.0 9.0 0.00 0.00 0.00 41 1012.4
20180721114041 80 136 3.0 9.0 0.00 0.00 0.00 43 1012.4
20180721113541 80 261 2.0 9.0 0.00 0.00 0.00 42 1012.5
20180721113041 80 323 3.0 4.0 0.00 0.00 0.00 42 1012.5
20180721112541 79 93 4.0 5.0 0.00 0.00 0.00 44 1012.5
20180721112041 79 216 4.0 8.0 0.00 0.00 0.00 43 1012.5
20180721111541 80 252 3.0 8.0 0.00 0.00 0.00 43 1012.8
20180721111041 79 249 3.0 6.0 0.00 0.00 0.00 43 1012.8
20180721110541 79 148 4.0 5.0 0.00 0.00 0.00 44 1012.8